Time,TemperatureF,DewpointF,PressureIn,WindDirection,WindDirectionDegrees,WindSpeedMPH,WindSpeedGustMPH,Humidity,HourlyPrecipIn,Conditions,Clouds,dailyrainin,SoftwareType,DateUTC
2013-08-17 00:13:00,97.8,48.0,29.41,North,357,2.0,-999.0,18,-99.99,,,0.00,weatherlink.com 1.10,2013-08-17 07:13:00,
2013-08-17 00:28:00,97.1,47.0,29.41,North,357,1.0,-999.0,18,-99.99,,,0.00,weatherlink.com 1.10,2013-08-17 07:28:00,
2013-08-17 00:43:00,95.4,50.0,29.41,North,357,3.0,-999.0,21,-99.99,,,0.00,weatherlink.com 1.10,2013-08-17 07:43:00,
2013-08-17 00:58:00,94.3,49.0,29.41,North,357,2.0,-999.0,21,-99.99,,,0.00,weatherlink.com 1.10,2013-08-17 07:58:00,
2013-08-17 01:13:00,94.3,49.0,29.41,North,357,0.0,-999.0,21,-99.99,,,0.00,weatherlink.com 1.10,2013-08-17 08:13:00,
2013-08-17 01:28:00,94.7,48.0,29.42,North,357,0.0,-999.0,20,-99.99,,,0.00,weatherlink.com 1.10,2013-08-17 08:28:00,
2013-08-17 01:43:00,94.9,47.0,29.41,North,357,0.0,-999.0,19,-99.99,,,0.00,weatherlink.com 1.10,2013-08-17 08:43:00,
2013-08-17 01:58:00,94.3,48.0,29.41,North,356,0.0,-999.0,20,-99.99,,,0.00,weatherlink.com 1.10,2013-08-17 08:58:00,
2013-08-17 02:13:00,93.4,48.0,29.41,South,182,0.0,-999.0,21,-99.99,,,0.00,weatherlink.com 1.10,2013-08-17 09:13:00,
2013-08-17 02:28:00,91.2,49.0,29.41,West,277,1.0,-999.0,23,-99.99,,,0.00,weatherlink.com 1.10,2013-08-17 09:28:00,
2013-08-17 02:43:00,91.0,53.0,29.41,SSW,203,0.0,-999.0,27,-99.99,,,0.00,weatherlink.com 1.10,2013-08-17 09:43:00,
2013-08-17 02:58:00,89.7,52.0,29.40,NE,49,0.0,-999.0,27,-99.99,,,0.00,weatherlink.com 1.10,2013-08-17 09:58:00,
2013-08-17 03:13:00,88.8,54.0,29.40,North,356,1.0,-999.0,31,-99.99,,,0.00,weatherlink.com 1.10,2013-08-17 10:13:00,
2013-08-17 03:28:00,88.6,54.0,29.40,NE,44,0.0,-999.0,31,-99.99,,,0.00,weatherlink.com 1.10,2013-08-17 10:28:00,
2013-08-17 03:43:00,88.2,53.0,29.40,NE,45,0.0,-999.0,30,-99.99,,,0.00,weatherlink.com 1.10,2013-08-17 10:43:00,
2013-08-17 03:58:00,-999.0,-99.9,29.40,North,-999,-999.0,-999.0,-999,-99.99,,,0.00,weatherlink.com 1.10,2013-08-17 10:58:00,
2013-08-17 04:13:00,-999.0,-99.9,29.40,North,-999,-999.0,-999.0,-999,-99.99,,,0.00,weatherlink.com 1.10,2013-08-17 11:13:00,
2013-08-17 04:28:00,-999.0,-99.9,29.40,North,-999,-999.0,-999.0,-999,-99.99,,,0.00,weatherlink.com 1.10,2013-08-17 11:28:00,
2013-08-17 04:44:00,-999.0,-99.9,29.41,North,-999,-999.0,-999.0,-999,-99.99,,,0.00,weatherlink.com 1.10,2013-08-17 11:44:00,
2013-08-17 04:59:00,-999.0,-99.9,29.41,North,-999,-999.0,-999.0,-999,-99.99,,,0.00,weatherlink.com 1.10,2013-08-17 11:59:00,
2013-08-17 05:14:00,-999.0,-99.9,29.41,North,-999,-999.0,-999.0,-999,-99.99,,,0.00,weatherlink.com 1.10,2013-08-17 12:14:00,
2013-08-17 05:29:00,-999.0,-99.9,29.41,North,-999,-999.0,-999.0,-999,-99.99,,,0.00,weatherlink.com 1.10,2013-08-17 12:29:00,
2013-08-17 05:44:00,-999.0,-99.9,29.42,North,-999,-999.0,-999.0,-999,-99.99,,,0.00,weatherlink.com 1.10,2013-08-17 12:44:00,
2013-08-17 05:59:00,-999.0,-99.9,29.42,North,-999,-999.0,-999.0,-999,-99.99,,,0.00,weatherlink.com 1.10,2013-08-17 12:59:00,
2013-08-17 06:14:00,-999.0,-99.9,29.43,North,-999,-999.0,-999.0,-999,-99.99,,,0.00,weatherlink.com 1.10,2013-08-17 13:14:00,
2013-08-17 06:29:00,-999.0,-99.9,29.43,North,-999,-999.0,-999.0,-999,-99.99,,,0.00,weatherlink.com 1.10,2013-08-17 13:29:00,
2013-08-17 06:44:00,-999.0,-99.9,29.43,North,-999,-999.0,-999.0,-999,-99.99,,,0.00,weatherlink.com 1.10,2013-08-17 13:44:00,
2013-08-17 06:59:00,-999.0,-99.9,29.43,North,-999,-999.0,-999.0,-999,-99.99,,,0.00,weatherlink.com 1.10,2013-08-17 13:59:00,
2013-08-17 07:14:00,-999.0,-99.9,29.44,North,-999,-999.0,-999.0,-999,-99.99,,,0.00,weatherlink.com 1.10,2013-08-17 14:14:00,
2013-08-17 07:29:00,-999.0,-99.9,29.44,North,-999,-999.0,-999.0,-999,-99.99,,,0.00,weatherlink.com 1.10,2013-08-17 14:29:00,
2013-08-17 07:44:00,-999.0,-99.9,29.45,North,-999,-999.0,-999.0,-999,-99.99,,,0.00,weatherlink.com 1.10,2013-08-17 14:44:00,
2013-08-17 07:59:00,91.2,55.0,29.45,North,357,1.0,-999.0,29,-99.99,,,0.00,weatherlink.com 1.10,2013-08-17 14:59:00,
2013-08-17 08:14:00,92.7,55.0,29.46,North,357,6.0,-999.0,28,-99.99,,,0.00,weatherlink.com 1.10,2013-08-17 15:14:00,
2013-08-17 08:29:00,94.5,55.0,29.46,North,357,3.0,-999.0,26,-99.99,,,0.00,weatherlink.com 1.10,2013-08-17 15:29:00,
2013-08-17 08:44:00,96.1,55.0,29.46,NNW,346,3.0,-999.0,25,-99.99,,,0.00,weatherlink.com 1.10,2013-08-17 15:44:00,
2013-08-17 09:00:00,97.8,54.0,29.46,North,357,0.0,-999.0,23,-99.99,,,0.00,weatherlink.com 1.10,2013-08-17 16:00:00,
2013-08-17 09:15:00,99.7,53.0,29.46,North,357,0.0,-999.0,21,-99.99,,,0.00,weatherlink.com 1.10,2013-08-17 16:15:00,
2013-08-17 09:30:00,101.5,54.0,29.46,North,353,0.0,-999.0,20,-99.99,,,0.00,weatherlink.com 1.10,2013-08-17 16:30:00,
2013-08-17 09:45:00,102.3,54.0,29.46,North,357,0.0,-999.0,20,-99.99,,,0.00,weatherlink.com 1.10,2013-08-17 16:45:00,
2013-08-17 10:00:00,104.1,53.0,29.46,North,356,2.0,-999.0,18,-99.99,,,0.00,weatherlink.com 1.10,2013-08-17 17:00:00,
2013-08-17 10:15:00,105.7,53.0,29.46,North,357,2.0,-999.0,17,-99.99,,,0.00,weatherlink.com 1.10,2013-08-17 17:15:00,
2013-08-17 10:30:00,106.2,51.0,29.46,North,357,0.0,-999.0,16,-99.99,,,0.00,weatherlink.com 1.10,2013-08-17 17:30:00,
2013-08-17 10:45:00,106.8,52.0,29.45,North,357,0.0,-999.0,16,-99.99,,,0.00,weatherlink.com 1.10,2013-08-17 17:45:00,
2013-08-17 11:00:00,108.8,54.0,29.45,North,356,2.0,-999.0,16,-99.99,,,0.00,weatherlink.com 1.10,2013-08-17 18:00:00,
2013-08-17 11:15:00,109.3,52.0,29.44,North,356,0.0,-999.0,15,-99.99,,,0.00,weatherlink.com 1.10,2013-08-17 18:15:00,
2013-08-17 11:30:00,108.5,55.0,29.43,North,354,1.0,-999.0,17,-99.99,,,0.00,weatherlink.com 1.10,2013-08-17 18:30:00,
2013-08-17 11:45:00,109.9,54.0,29.43,North,354,2.0,-999.0,16,-99.99,,,0.00,weatherlink.com 1.10,2013-08-17 18:45:00,
2013-08-17 12:00:00,110.2,55.0,29.42,North,354,0.0,-999.0,16,-99.99,,,0.00,weatherlink.com 1.10,2013-08-17 19:00:00,
2013-08-17 12:15:00,110.8,57.0,29.41,North,356,2.0,-999.0,17,-99.99,,,0.00,weatherlink.com 1.10,2013-08-17 19:15:00,
2013-08-17 12:30:00,111.0,57.0,29.41,SSE,150,0.0,-999.0,17,-99.99,,,0.00,weatherlink.com 1.10,2013-08-17 19:30:00,
2013-08-17 12:45:00,112.6,55.0,29.40,North,356,0.0,-999.0,15,-99.99,,,0.00,weatherlink.com 1.10,2013-08-17 19:45:00,
2013-08-17 13:00:00,113.2,55.0,29.39,WSW,253,6.0,-999.0,15,-99.99,,,0.00,weatherlink.com 1.10,2013-08-17 20:00:00,
2013-08-17 13:15:00,113.2,57.0,29.38,North,356,4.0,-999.0,16,-99.99,,,0.00,weatherlink.com 1.10,2013-08-17 20:15:00,
2013-08-17 13:30:00,112.2,55.0,29.37,North,356,0.0,-999.0,15,-99.99,,,0.00,weatherlink.com 1.10,2013-08-17 20:30:00,
2013-08-17 13:45:00,113.2,54.0,29.37,North,354,0.0,-999.0,14,-99.99,,,0.00,weatherlink.com 1.10,2013-08-17 20:45:00,
2013-08-17 14:00:00,112.9,53.0,29.36,North,354,0.0,-999.0,14,-99.99,,,0.00,weatherlink.com 1.10,2013-08-17 21:00:00,
2013-08-17 14:15:00,113.2,54.0,29.35,North,354,0.0,-999.0,14,-99.99,,,0.00,weatherlink.com 1.10,2013-08-17 21:15:00,
2013-08-17 14:30:00,113.8,54.0,29.35,North,356,1.0,-999.0,14,-99.99,,,0.00,weatherlink.com 1.10,2013-08-17 21:30:00,
2013-08-17 14:45:00,114.5,55.0,29.34,North,356,8.0,-999.0,14,-99.99,,,0.00,weatherlink.com 1.10,2013-08-17 21:45:00,
2013-08-17 15:00:00,113.8,54.0,29.33,North,356,3.0,-999.0,14,-99.99,,,0.00,weatherlink.com 1.10,2013-08-17 22:00:00,
2013-08-17 15:15:00,113.8,54.0,29.32,North,356,1.0,-999.0,14,-99.99,,,0.00,weatherlink.com 1.10,2013-08-17 22:15:00,
2013-08-17 15:30:00,114.5,55.0,29.31,North,356,2.0,-999.0,14,-99.99,,,0.00,weatherlink.com 1.10,2013-08-17 22:30:00,
2013-08-17 15:45:00,113.5,54.0,29.31,North,356,2.0,-999.0,14,-99.99,,,0.00,weatherlink.com 1.10,2013-08-17 22:45:00,
2013-08-17 16:00:00,114.5,55.0,29.30,North,356,6.0,-999.0,14,-99.99,,,0.00,weatherlink.com 1.10,2013-08-17 23:00:00,
2013-08-17 16:15:00,112.6,55.0,29.29,North,356,5.0,-999.0,15,-99.99,,,0.00,weatherlink.com 1.10,2013-08-17 23:15:00,
2013-08-17 16:30:00,112.6,55.0,29.29,North,356,4.0,-999.0,15,-99.99,,,0.00,weatherlink.com 1.10,2013-08-17 23:30:00,
2013-08-17 16:45:00,112.9,55.0,29.29,North,354,10.0,-999.0,15,-99.99,,,0.00,weatherlink.com 1.10,2013-08-17 23:45:00,
2013-08-17 17:00:00,112.2,55.0,29.28,North,354,3.0,-999.0,15,-99.99,,,0.00,weatherlink.com 1.10,2013-08-18 00:00:00,
2013-08-17 17:15:00,112.2,55.0,29.28,North,354,6.0,-999.0,15,-99.99,,,0.00,weatherlink.com 1.10,2013-08-18 00:15:00,
2013-08-17 17:30:00,111.6,54.0,29.27,North,354,6.0,-999.0,15,-99.99,,,0.00,weatherlink.com 1.10,2013-08-18 00:30:00,
2013-08-17 17:45:00,111.0,54.0,29.27,North,354,10.0,-999.0,15,-99.99,,,0.00,weatherlink.com 1.10,2013-08-18 00:45:00,
2013-08-17 18:00:00,110.5,55.0,29.27,North,356,5.0,-999.0,16,-99.99,,,0.00,weatherlink.com 1.10,2013-08-18 01:00:00,
2013-08-17 18:15:00,110.8,55.0,29.27,North,356,8.0,-999.0,16,-99.99,,,0.00,weatherlink.com 1.10,2013-08-18 01:15:00,
2013-08-17 18:30:00,110.5,53.0,29.27,North,356,2.0,-999.0,15,-99.99,,,0.00,weatherlink.com 1.10,2013-08-18 01:30:00,
2013-08-17 18:45:00,109.3,52.0,29.28,North,357,2.0,-999.0,15,-99.99,,,0.00,weatherlink.com 1.10,2013-08-18 01:45:00,
2013-08-17 19:00:00,108.8,52.0,29.28,North,357,1.0,-999.0,15,-99.99,,,0.00,weatherlink.com 1.10,2013-08-18 02:00:00,
2013-08-17 19:15:00,107.9,51.0,29.28,North,357,6.0,-999.0,15,-99.99,,,0.00,weatherlink.com 1.10,2013-08-18 02:15:00,
2013-08-17 19:30:00,106.8,48.0,29.29,North,357,5.0,-999.0,14,-99.99,,,0.00,weatherlink.com 1.10,2013-08-18 02:30:00,
2013-08-17 19:45:00,105.7,47.0,29.29,North,357,6.0,-999.0,14,-99.99,,,0.00,weatherlink.com 1.10,2013-08-18 02:45:00,
2013-08-17 20:00:00,104.6,47.0,29.30,North,357,5.0,-999.0,14,-99.99,,,0.00,weatherlink.com 1.10,2013-08-18 03:00:00,
2013-08-17 20:15:00,103.8,48.0,29.31,North,357,1.0,-999.0,15,-99.99,,,0.00,weatherlink.com 1.10,2013-08-18 03:15:00,
2013-08-17 20:30:00,103.1,47.0,29.31,North,357,2.0,-999.0,15,-99.99,,,0.00,weatherlink.com 1.10,2013-08-18 03:30:00,
2013-08-17 20:45:00,102.5,47.0,29.32,North,357,0.0,-999.0,15,-99.99,,,0.00,weatherlink.com 1.10,2013-08-18 03:45:00,
2013-08-17 21:00:00,101.7,48.0,29.33,North,357,1.0,-999.0,16,-99.99,,,0.00,weatherlink.com 1.10,2013-08-18 04:00:00,
2013-08-17 21:15:00,101.0,49.0,29.33,North,357,3.0,-999.0,17,-99.99,,,0.00,weatherlink.com 1.10,2013-08-18 04:15:00,
2013-08-17 21:30:00,100.4,48.0,29.34,North,357,1.0,-999.0,17,-99.99,,,0.00,weatherlink.com 1.10,2013-08-18 04:30:00,
2013-08-17 21:45:00,99.9,48.0,29.34,North,356,6.0,-999.0,17,-99.99,,,0.00,weatherlink.com 1.10,2013-08-18 04:45:00,
2013-08-17 22:00:00,99.4,47.0,29.34,North,356,2.0,-999.0,17,-99.99,,,0.00,weatherlink.com 1.10,2013-08-18 05:00:00,
2013-08-17 22:15:00,99.2,50.0,29.34,North,356,0.0,-999.0,19,-99.99,,,0.00,weatherlink.com 1.10,2013-08-18 05:15:00,
2013-08-17 22:30:00,96.8,52.0,29.34,North,356,0.0,-999.0,22,-99.99,,,0.00,weatherlink.com 1.10,2013-08-18 05:30:00,
2013-08-17 22:45:00,94.9,51.0,29.35,North,356,0.0,-999.0,22,-99.99,,,0.00,weatherlink.com 1.10,2013-08-18 05:45:00,
2013-08-17 23:00:00,95.9,47.0,29.35,North,356,0.0,-999.0,19,-99.99,,,0.00,weatherlink.com 1.10,2013-08-18 06:00:00,
2013-08-17 23:15:00,97.5,47.0,29.36,North,357,2.0,-999.0,18,-99.99,,,0.00,weatherlink.com 1.10,2013-08-18 06:15:00,
2013-08-17 23:30:00,98.2,49.0,29.38,North,357,6.0,-999.0,19,-99.99,,,0.00,weatherlink.com 1.10,2013-08-18 06:30:00,
2013-08-17 23:45:00,99.2,57.0,29.39,SSE,168,6.0,-999.0,24,-99.99,,,0.00,weatherlink.com 1.10,2013-08-18 06:45:00,